Regional Weather Roundup
Issued by NWS

Home | Current Version | Previous Version | Text Only | Print | Product List | Glossary Off
Versions: 1 2 3 4 5 6 7 8 9 10 11 12 13 14 15 16 17 18 19 20 21 22 23 24 25 26 27 28

000
ASUS45 KCYS 160810
RWRWY

WYOMING REGIONAL WEATHER ROUNDUP
NATIONAL WEATHER SERVICE CHEYENNE WY
200 AM MDT WED APR 16 2014

NOTE:  "FAIR" INDICATES FEW OR NO CLOUDS BELOW 12,000 FEET
WITH NO SIGNIFICANT WEATHER AND/OR OBSTRUCTIONS TO VISIBILITY.

WYZ001-160900-
YELLOWSTONE NATIONAL PARK

CITY           SKY/WX    TMP DP  RH WIND       PRES   REMARKS
LK YELLOWSTONE   N/A     14  11  87 CALM      29.93R
W YELLOWSTONE  NOT AVBL

$$
WYZ002>013-054>058-071-098>099-160900-
NORTHERN WYOMING

CITY           SKY/WX    TMP DP  RH WIND       PRES   REMARKS
JACKSON        PTCLDY    28  19  69 CALM      29.93R
CODY           PTCLDY    34  25  69 CALM      29.84R
GREYBULL       LGT RAIN  38  32  79 NW25G36   29.82R WCI  27
WORLAND        MOCLDY    38  29  70 NW8       29.83R WCI  32
SHERIDAN       MOCLDY    38  32  79 NW20      29.79R WCI  28
BUFFALO        FLURRIES  36  29  75 NW26G38   29.78R WCI  24
GILLETTE       CLOUDY    37  34  87 NW21      29.73R WCI  27
HULETT         LGT RAIN N/A N/A N/A W9        29.70
NEWCASTLE      DRIZZLE   36  36 100 NW18      29.68  WCI  25

$$
WYZ014>020-022>026-101>103-160900-
CENTRAL WYOMING

CITY           SKY/WX    TMP DP  RH WIND       PRES   REMARKS
BIG PINEY      CLEAR     24  17  74 NW13      29.91R WCI  12
PINEDALE       SUNNY     21  19  93 W5        29.90R WCI  15
DUBOIS         LGT SNOW  27  21  80 W14       29.86R WCI  15
LANDER         PTCLDY    32  28  85 SE7       29.84S WCI  26
RIVERTON       CLOUDY    35  26  69 CALM      29.85R
CASPER         CLOUDY    33  31  92 SW6       29.80S WCI  28
DOUGLAS        CLOUDY    36  33  89 NW17      29.76R WCI  26

$$
WYZ021-027>030-104>119-160900-
SOUTHERN WYOMING

CITY           SKY/WX    TMP DP  RH WIND       PRES   REMARKS
EVANSTON       CLOUDY    34  11  38 W12       29.96S WCI  25
KEMMERER       MOSUNNY   32  19  59 W18       29.93  WCI  20
FORT BRIDGER   FAIR      34  10  37 W10       29.97R WCI  26
ROCK SPRINGS   PTCLDY    32  22  66 W14       29.91R WCI  22
DIXON          FAIR      39  17  41 W13G22    29.90R WCI  31
RAWLINS        CLOUDY    30  24  78 NW9       29.85R WCI  22
SARATOGA       CLOUDY    34  27  75 NW10      29.85R WCI  26
LARAMIE        NOT AVBL
CHEYENNE       CLOUDY    38  29  70 W21       29.72F WCI  28
TORRINGTON     MOCLDY    44  33  65 W30G46    29.66R
PINE BLUFFS    PTSUNNY   43  30  61 W24G30    29.69F

$$



USA.gov is the U.S. government's official web portal to all federal, state and local government web resources and services.